Regional Weather Roundup
Issued by NWS

Home | Current Version | Previous Version | Text Only | Print | Product List | Glossary Off
Versions: 1 2 3 4 5 6 7 8 9 10 11 12 13 14 15 16 17 18 19 20 21 22 23 24 25 26 27 28 29 30 31 32 33 34 35 36 37 38 39 40 41 42 43 44 45 46 47 48 49 50

000
ASUS45 KCYS 260210
RWRWY

WYOMING REGIONAL WEATHER ROUNDUP
NATIONAL WEATHER SERVICE CHEYENNE WY
800 PM MDT MON MAY 25 2015

NOTE:  "FAIR" INDICATES FEW OR NO CLOUDS BELOW 12,000 FEET
WITH NO SIGNIFICANT WEATHER AND/OR OBSTRUCTIONS TO VISIBILITY.

WYZ001-260300-
YELLOWSTONE NATIONAL PARK

CITY           SKY/WX    TMP DP  RH WIND       PRES   REMARKS
LK YELLOWSTONE   N/A     44  40  85 CALM      30.05R
W YELLOWSTONE  NOT AVBL

$$
WYZ002>013-054>058-071-098>099-260300-
NORTHERN WYOMING

CITY           SKY/WX    TMP DP  RH WIND       PRES   REMARKS
JACKSON        PTCLDY    54  43  66 S12       29.97R
CODY           MOCLDY    57  43  58 CALM      29.93S
GREYBULL       FAIR      65  42  43 S6        29.88S
WORLAND        FAIR      58  48  69 S7        29.91S
SHERIDAN       MOCLDY    58  48  69 SE8       29.93R
BUFFALO          N/A     53  46  77 E6        29.97R
GILLETTE       CLOUDY    55  48  77 N6        29.94R
HULETT         CLOUDY    52  50  93 NE3       29.96R
NEWCASTLE      CLOUDY    54  48  82 SE5       29.93R

$$
WYZ014>020-022>026-101>103-260300-
CENTRAL WYOMING

CITY           SKY/WX    TMP DP  RH WIND       PRES   REMARKS
BIG PINEY      CLOUDY    52  39  61 SW5       30.03R
PINEDALE       FAIR      48  39  71 SE3       30.05R
DUBOIS         FAIR      48  39  71 SE6       30.02R
LANDER         FAIR      54  45  71 E5        29.95R
RIVERTON       FAIR      56  43  61 E5        29.97R
CASPER         FAIR      54  44  69 N6        29.97R
DOUGLAS        CLOUDY    56  47  71 N6        29.95R

$$
WYZ021-027>030-104>119-260300-
SOUTHERN WYOMING

CITY           SKY/WX    TMP DP  RH WIND       PRES   REMARKS
EVANSTON       FAIR      47  44  90 S6        30.07R
KEMMERER       FAIR      48  41  76 W9        30.06S
FORT BRIDGER   PTCLDY    48  46  93 W12       30.09R
ROCK SPRINGS   FAIR      48  42  80 S3        30.04R
DIXON          CLOUDY    53  42  65 W6        30.06R
RAWLINS        LGT RAIN  49  42  77 SW3       30.05R
SARATOGA       LGT RAIN  46  43  87 SW7       30.07R
LARAMIE        CLOUDY    47  40  76 NW8       30.02S
CHEYENNE       CLOUDY    52  41  66 W12       29.98R
TORRINGTON     MOCLDY    52  51  97 CALM      29.90S
PINE BLUFFS    FAIR      50  45  81 W6        29.95R

$$


USA.gov is the U.S. government's official web portal to all federal, state and local government web resources and services.